SL-14 DEB, 45309

Orbit data source: Space-Track

SL-14 DEB, 45309 is space debris in LEO originally from a launch on Thu, 15 Aug 1991 UTC launched from the Plesetsk Missile And Space Complex (PKMTR). Debris objects in space refer to the collection of defunct objects orbiting the Earth. Examples of debris include non-operational satellites, rocket bodies, and fragments generated from explosions, collisions, or faulty payload assembly.

Loading next visibility...
Identifier
45309, 1991-056AX
Orbit
LEO
Country
Flag of CISCIS
Related business
Manufacturer
Unknown
Mission
Spacecraft
Bus & Motor
Unknown
Mass
Unknown
Launch date (UTC)
1991-08-15 (35 years ago)
Launch vehicle
Unknown
Launch site
Plesetsk Missile And Space Complex (PKMTR)
Object type
Payload
Rocket body
Debris
Shape & HBR
Unknown shape, 0.2 m
Radar Cross Section
Medium (>0.1 m² and <1 m²)

Expand to show TLE details & history
Last TLE update: 10 hours ago

TLE from 10 hours ago
0 SL-14 DEB
1 45309U 91056AX  26168.02565053  .00003150  00000-0  70253-2 0  9999
2 45309  82.6127 163.7123 0108893 359.4339   0.6647 13.24931063303648
Epoch: 2026-06-17T00:36Z
TLE epoch observation values (Epoch: 2026-06-17T00:36:56.205Z)
Latitude
-0.00002°
Longitude
-110.81114°
Altitude
1,086.605 km
Speed
7.349 km/s
True Right ascension
10h 54m 50s
True Declination
0° 00' 00"
Sunlit
Object was in daylight at epoch
Visualization orbit readout
Latitude
Unknown
Longitude
Unknown
Altitude
Unknown
Speed
Unknown
Apparent Right ascension
Unknown
Apparent Declination
Unknown
Sunlit
N/A
Visualization observer readout
Local Sidereal Time
21:02:56
Azimuth
Unknown
Elevation
Unknown
Doppler factor
Unknown
Orbital elements
Apogee altitude
1,245.294 km
Perigee altitude
1,081.055 km
Semi-major axis
7,541.311 km
Eccentricity
0.01089
Inclination
82.6127°
RAAN
163.7123°
Arg. of periapsis
359.4339°
True anomaly
0.67938°
Mean anomaly
0.6647°
Eccentric anomaly
0.67202°
Mean motion
3.31416 °/min
Orbital period
108.62 mins
BSTAR
0.0070253
Loading maneuver chart data...
Computing Atmospheric mass density...
Loading historical data...
Loading historical data...
Loading historical data...
Loading historical data...
Loading historical data...
Loading historical data...
Loading historical data...

Documentation

Showing up to 5 results
|